Wind_Speed
13 13 12 12 12 12 13 13 12 13 13 13 12 11 11 11 11 10 10 10 11 10 10 10 10 10 10 10 10 10 10 10 11 12 12 13 13 13 13 12 12 12 12 12
14 13 13 13 13 13 14 14 13 14 14 13 12 12 12 12 12 12 11 11 12 12 12 11 10 10 9 9 10 10 10 11 11 12 13 13 13 13 13 12 12 12 13 13
14 13 14 14 14 14 14 14 14 14 14 14 13 13 13 12 12 12 11 11 11 11 11 10 10 9 9 9 10 11 11 11 11 12 13 13 13 13 13 13 13 12 12 13
15 14 14 14 14 13 13 13 13 14 14 14 15 14 13 13 12 12 11 11 11 11 11 10 10 10 10 10 10 11 12 12 12 12 13 13 13 13 14 14 14 13 13 13
15 14 14 14 13 14 13 13 14 14 15 15 15 16 13 13 12 12 12 12 12 12 11 11 11 11 11 11 11 12 12 12 13 13 13 13 14 14 14 14 14 14 14 14
16 16 15 15 14 14 14 14 15 16 16 16 15 16 13 12 13 13 13 13 12 12 11 12 12 12 12 12 12 12 12 13 13 13 13 14 14 15 14 14 14 14 14 15
16 16 16 16 15 15 15 15 16 17 17 17 15 15 14 12 13 14 14 14 13 12 12 12 13 12 12 12 12 13 13 13 13 13 13 14 14 14 13 13 13 13 14 15
17 17 17 16 16 16 16 16 16 17 16 16 16 15 14 13 13 14 14 14 13 13 13 13 13 13 12 13 13 13 13 13 13 13 14 15 14 14 13 13 13 13 14 15
17 18 17 17 16 16 16 17 17 17 17 16 16 15 14 13 13 14 14 13 13 14 14 13 13 13 13 13 14 14 14 14 14 14 15 15 14 14 13 13 14 14 15 15
18 18 18 18 18 17 17 17 17 18 17 17 16 15 15 13 13 13 13 13 14 14 14 14 14 14 14 14 14 14 14 14 14 15 15 15 15 14 14 14 14 15 16 16
20 20 19 19 19 19 18 19 19 19 19 19 18 16 15 14 14 14 14 14 15 15 15 15 15 15 15 15 14 14 15 14 14 14 15 15 15 15 15 15 15 16 16 16
20 21 21 21 20 20 19 19 20 21 20 20 19 18 17 17 16 15 15 15 15 16 16 16 16 16 16 15 15 15 15 15 15 15 15 15 15 15 15 15 16 16 16 16
21 21 21 21 21 20 20 20 21 22 21 21 20 19 18 18 17 16 16 16 16 16 17 17 17 17 16 16 16 15 15 15 15 16 16 15 15 15 15 16 16 16 16 16
21 21 21 21 21 21 21 21 21 22 23 22 20 20 19 20 18 17 18 18 18 18 18 18 18 18 18 17 17 16 16 16 17 17 17 16 16 16 16 17 17 17 17 17
22 21 21 21 21 21 22 22 22 22 23 23 22 21 21 21 20 19 19 19 19 19 19 19 19 19 18 18 17 17 17 18 18 17 17 17 17 16 17 17 17 17 18 17
23 22 22 22 22 22 22 23 23 23 23 23 23 23 22 22 22 21 20 21 21 20 20 20 19 19 19 19 18 18 18 18 18 18 17 17 17 18 18 18 18 18 18 18
23 23 23 23 23 24 24 23 23 24 23 23 23 23 23 22 22 21 20 20 20 21 21 20 20 20 20 20 20 20 20 19 19 18 18 18 18 18 18 18 18 19 19 18
24 24 25 25 25 26 24 24 24 24 24 24 24 24 23 23 23 23 22 21 21 21 21 21 21 22 22 22 21 21 21 21 20 18 18 18 18 18 19 19 19 20 20 19
24 24 25 25 26 26 25 24 24 25 24 23 24 25 25 25 24 23 23 23 21 21 21 21 22 22 22 23 22 22 22 21 20 20 19 19 19 19 19 20 20 20 20 20
24 24 24 25 26 26 24 24 24 25 26 24 25 26 26 26 25 24 24 23 22 21 22 22 21 22 22 23 23 22 22 22 21 21 21 21 20 20 20 21 21 21 21 21
23 24 24 25 26 25 24 24 24 25 25 26 26 26 26 25 25 25 25 24 24 23 23 23 23 23 23 23 22 22 23 22 22 22 23 23 23 23 23 22 22 23 23 23
24 24 24 25 25 25 24 25 25 25 25 26 26 27 27 26 26 25 25 25 25 24 24 25 25 24 24 24 24 24 24 24 24 24 24 24 24 24 24 24 25 24 24 23
25 25 25 26 25 25 25 25 25 25 25 26 26 27 28 27 26 26 26 26 26 26 26 26 26 26 26 26 26 26 26 26 25 25 25 25 25 25 26 26 26 25 25 25
25 25 26 26 26 25 26 26 26 26 26 26 27 28 29 28 27 27 27 27 27 27 28 28 28 27 27 27 27 27 27 27 27 26 25 26 26 26 26 26 26 25 25 25
25 27 27 26 26 27 27 27 27 28 28 28 28 29 29 28 28 28 28 29 29 28 28 29 28 29 28 28 28 28 28 28 28 27 26 26 26 26 26 26 26 25 25 25
27 27 28 28 27 28 27 28 28 28 28 29 29 30 30 30 30 29 29 29 29 29 28 28 28 28 28 28 29 28 29 29 28 28 27 27 27 27 27 27 26 26 26 25
Wind_Direction
267 266 266 266 266 263 264 264 262 264 265 266 267 269 269 267 271 272 271 273 275 278 281 290 293 293 292 294 296 294 297 296 297 297 296 295 294 293 292 288 283 282 281 279
265 265 265 265 264 262 261 262 262 263 263 265 268 270 270 269 270 273 274 276 278 281 285 289 293 294 295 295 294 297 298 295 295 296 295 294 294 293 290 287 283 280 279 279
264 264 263 262 262 262 262 263 262 263 264 264 266 268 271 272 272 273 274 275 279 281 283 287 291 295 297 295 295 298 299 297 297 299 299 297 297 296 292 288 284 280 278 280
261 262 261 261 261 262 261 264 261 261 261 262 266 268 267 270 272 274 273 276 278 279 283 286 286 288 292 293 294 298 297 297 297 298 298 296 294 293 291 288 283 278 277 279
260 261 262 262 262 262 261 259 261 262 262 263 265 266 264 267 269 271 272 275 276 279 283 283 279 281 286 292 294 296 296 297 296 296 298 297 294 291 289 287 283 279 277 277
259 260 260 261 261 260 260 260 261 263 264 263 264 266 262 264 268 269 271 275 275 278 281 281 278 278 283 290 294 297 296 295 295 296 298 299 296 292 290 289 285 281 280 280
258 257 258 258 258 259 260 260 262 263 263 265 264 266 268 268 269 272 273 275 275 277 279 280 278 277 282 290 292 294 293 293 293 293 295 297 296 293 289 289 289 283 283 283
257 256 256 257 258 259 261 264 266 267 267 268 267 269 272 273 273 274 274 276 278 278 280 281 279 282 287 291 291 290 289 291 291 290 293 295 295 292 290 288 287 288 287 284
258 259 256 256 258 259 260 263 266 267 268 269 269 270 270 274 273 274 276 278 280 280 280 282 284 286 290 292 292 291 290 292 292 291 293 296 294 291 288 287 287 287 288 287
259 259 256 256 257 259 261 262 263 265 267 268 268 269 272 271 271 274 276 277 279 281 281 281 284 286 288 289 291 291 291 292 292 290 291 293 291 290 287 288 287 288 290 291
258 258 257 256 257 258 259 260 261 262 264 266 268 270 276 273 273 275 274 275 278 282 284 282 282 285 286 287 289 290 290 288 288 290 290 290 288 287 286 287 287 290 290 289
258 258 257 257 257 256 257 259 261 261 264 267 269 271 274 272 272 275 275 276 280 285 285 284 284 284 285 285 286 287 290 288 288 290 289 286 285 286 287 288 289 290 291 288
260 260 259 257 257 257 257 259 259 261 264 268 269 271 272 272 272 273 276 276 279 281 282 281 282 282 283 285 286 288 289 288 288 289 288 286 284 285 288 288 288 288 290 288
262 262 261 259 258 257 258 259 260 261 263 267 269 270 271 272 272 271 273 276 280 281 281 280 280 280 281 283 283 285 287 289 288 289 288 286 284 284 285 287 288 288 288 288
262 262 261 258 257 257 258 260 262 262 264 266 268 270 271 271 270 269 271 273 277 280 280 280 279 279 278 280 280 281 283 288 291 289 289 287 283 282 282 285 287 287 287 288
259 260 261 259 259 260 260 260 262 262 263 266 267 268 269 270 271 270 269 271 274 277 278 279 278 279 279 278 279 281 283 285 287 288 288 286 282 280 281 284 286 286 287 288
259 260 260 259 259 260 261 263 263 262 262 264 266 268 270 272 271 269 269 270 272 274 274 276 277 279 280 279 279 280 282 283 284 284 285 285 284 282 282 284 285 284 285 287
261 262 262 261 259 260 264 264 264 264 265 265 266 268 272 274 272 269 268 268 270 272 273 273 275 277 279 279 280 282 282 282 282 284 285 285 284 282 281 283 283 284 283 285
261 262 264 264 262 262 262 265 265 264 263 263 265 266 269 271 273 271 269 268 269 271 273 275 276 276 279 281 282 282 281 281 281 282 283 285 284 284 282 281 281 282 283 284
263 265 266 266 267 267 266 266 265 265 264 264 266 267 268 269 270 269 269 271 271 272 274 276 278 278 279 281 281 280 280 280 280 281 282 284 284 283 283 282 281 280 281 281
264 264 264 266 268 269 269 268 267 266 266 264 265 266 268 269 269 269 269 270 271 272 274 276 278 278 279 280 282 281 280 281 281 280 282 284 285 284 284 283 282 281 280 280
265 265 265 266 268 270 270 270 268 268 266 265 264 265 268 268 269 269 269 269 269 271 274 275 276 277 277 279 280 281 282 282 282 282 282 283 283 284 283 283 283 283 282 281
265 266 267 267 269 269 268 268 269 268 267 265 265 266 267 267 268 268 270 271 271 272 273 273 274 275 277 278 279 280 281 282 283 283 282 284 284 284 283 283 282 282 281 281
265 266 266 267 267 268 268 268 268 267 268 268 267 266 268 268 267 268 270 272 272 273 273 274 274 275 276 277 279 279 278 279 281 282 283 283 283 283 283 284 284 283 282 281
268 267 266 267 268 268 268 268 268 268 267 267 267 266 267 267 268 268 269 270 271 273 274 274 274 274 276 277 278 279 279 279 279 280 282 282 283 283 282 283 284 284 284 283
266 267 267 268 269 269 270 269 270 270 269 268 267 267 267 266 267 267 268 269 270 273 273 273 274 275 275 276 278 279 279 279 280 280 281 282 282 282 282 282 281 281 282 282
Height
5840 5841 5842 5842 5843 5843 5843 5844 5844 5844 5844 5845 5844 5844 5845 5844 5844 5844 5843 5843 5843 5842 5842 5841 5840 5839 5838 5837 5837 5836 5835 5834 5833 5832 5831 5830 5829 5828 5827 5826 5825 5825 5824 5823
5838 5838 5840 5839 5839 5840 5840 5841 5841 5841 5841 5842 5842 5842 5842 5842 5842 5841 5841 5841 5840 5840 5839 5838 5837 5836 5835 5835 5834 5833 5832 5831 5830 5829 5828 5827 5826 5825 5824 5823 5822 5821 5821 5820
5834 5837 5836 5836 5836 5837 5837 5838 5838 5838 5838 5839 5839 5840 5839 5839 5839 5839 5838 5838 5837 5837 5836 5835 5834 5834 5833 5832 5831 5830 5829 5828 5827 5826 5825 5824 5822 5821 5821 5820 5819 5818 5818 5817
5831 5832 5833 5832 5833 5833 5834 5835 5835 5835 5835 5836 5837 5837 5837 5836 5836 5836 5836 5835 5835 5834 5833 5832 5831 5831 5830 5829 5828 5827 5826 5825 5824 5823 5822 5821 5820 5819 5818 5816 5816 5815 5814 5813
5828 5829 5829 5829 5830 5830 5831 5831 5831 5832 5832 5832 5833 5833 5835 5833 5833 5833 5833 5832 5832 5831 5830 5829 5828 5828 5827 5826 5825 5824 5823 5822 5821 5820 5818 5817 5816 5815 5813 5812 5812 5811 5810 5809
5825 5825 5826 5826 5827 5827 5827 5828 5828 5828 5828 5829 5829 5829 5831 5830 5830 5830 5830 5829 5828 5827 5827 5826 5825 5825 5824 5823 5822 5821 5819 5818 5817 5816 5815 5813 5812 5810 5809 5808 5807 5806 5806 5805
5820 5821 5822 5822 5823 5823 5824 5825 5825 5824 5824 5825 5825 5825 5827 5827 5827 5827 5826 5826 5825 5824 5824 5823 5822 5821 5821 5820 5819 5817 5816 5815 5813 5812 5811 5809 5807 5806 5805 5804 5803 5802 5801 5800
5816 5817 5818 5818 5819 5820 5820 5821 5822 5822 5821 5821 5821 5821 5824 5823 5823 5823 5823 5822 5821 5821 5820 5820 5819 5818 5817 5816 5815 5814 5812 5811 5809 5808 5807 5805 5804 5802 5801 5800 5799 5798 5797 5796
5812 5813 5814 5814 5815 5816 5816 5816 5817 5817 5817 5817 5817 5818 5819 5820 5820 5819 5819 5819 5818 5817 5817 5816 5815 5814 5813 5812 5811 5810 5808 5807 5805 5804 5803 5801 5800 5798 5797 5797 5796 5795 5794 5793
5807 5808 5810 5810 5811 5811 5812 5813 5813 5813 5812 5812 5813 5814 5816 5816 5816 5816 5816 5815 5814 5814 5813 5812 5811 5810 5809 5808 5807 5806 5804 5803 5801 5800 5798 5797 5796 5795 5794 5793 5792 5791 5789 5788
5802 5803 5805 5806 5806 5807 5808 5808 5808 5808 5808 5808 5809 5813 5812 5812 5812 5811 5811 5811 5810 5809 5808 5808 5807 5806 5805 5804 5803 5802 5800 5799 5797 5796 5794 5793 5792 5791 5790 5789 5787 5786 5785 5784
5797 5798 5799 5800 5801 5802 5802 5803 5804 5804 5804 5804 5804 5809 5807 5807 5807 5807 5807 5807 5806 5805 5804 5803 5803 5802 5800 5799 5798 5797 5796 5795 5793 5792 5790 5789 5788 5787 5786 5785 5783 5782 5781 5780
5791 5793 5794 5795 5797 5797 5797 5798 5798 5799 5799 5799 5800 5804 5802 5802 5802 5802 5802 5802 5801 5800 5800 5799 5798 5797 5796 5795 5794 5793 5792 5791 5789 5788 5786 5785 5783 5782 5781 5780 5779 5778 5776 5775
5786 5787 5789 5790 5790 5791 5792 5792 5793 5793 5794 5794 5796 5797 5797 5796 5797 5797 5797 5797 5796 5796 5795 5794 5793 5792 5791 5790 5789 5788 5787 5785 5784 5783 5781 5780 5779 5778 5777 5775 5774 5773 5772 5771
5780 5781 5782 5783 5784 5785 5786 5786 5787 5788 5788 5789 5791 5791 5791 5791 5791 5792 5791 5791 5791 5790 5790 5789 5788 5787 5786 5785 5784 5783 5782 5780 5779 5778 5777 5775 5774 5773 5771 5770 5769 5768 5767 5766
5774 5775 5776 5777 5778 5778 5779 5780 5781 5782 5783 5783 5784 5785 5785 5785 5785 5785 5785 5785 5785 5785 5784 5783 5782 5782 5781 5780 5779 5778 5776 5775 5774 5773 5772 5770 5769 5768 5766 5765 5764 5763 5762 5761
5768 5769 5770 5771 5772 5772 5773 5775 5775 5776 5776 5777 5778 5779 5779 5779 5779 5779 5779 5779 5779 5779 5778 5777 5777 5776 5775 5774 5773 5772 5771 5770 5768 5767 5766 5765 5764 5763 5761 5760 5759 5758 5757 5756
5762 5763 5763 5764 5766 5766 5770 5768 5769 5770 5770 5771 5771 5772 5772 5772 5773 5773 5773 5773 5772 5772 5772 5771 5771 5770 5769 5768 5767 5766 5765 5764 5763 5762 5761 5759 5758 5757 5756 5755 5754 5752 5751 5750
5755 5756 5756 5757 5757 5759 5761 5762 5762 5763 5764 5764 5764 5765 5765 5765 5766 5766 5766 5766 5765 5765 5765 5765 5764 5763 5763 5762 5761 5760 5759 5758 5757 5756 5755 5754 5753 5751 5750 5749 5748 5746 5745 5744
5749 5749 5750 5751 5751 5752 5755 5755 5755 5756 5756 5758 5757 5758 5758 5758 5759 5760 5759 5759 5759 5759 5759 5758 5757 5757 5756 5755 5754 5754 5753 5752 5751 5750 5749 5748 5747 5745 5744 5743 5741 5740 5739 5738
5742 5742 5743 5744 5744 5745 5747 5747 5748 5749 5750 5750 5750 5750 5750 5750 5751 5752 5751 5752 5752 5752 5752 5751 5751 5750 5749 5748 5747 5746 5746 5745 5744 5743 5742 5741 5740 5738 5737 5736 5735 5733 5732 5731
5735 5736 5737 5737 5737 5740 5739 5739 5740 5740 5741 5741 5741 5742 5742 5743 5743 5743 5744 5744 5744 5744 5744 5744 5743 5743 5742 5741 5740 5739 5738 5737 5736 5736 5734 5733 5733 5731 5730 5729 5727 5726 5725 5724
5728 5730 5730 5731 5732 5731 5731 5731 5731 5731 5732 5732 5733 5733 5734 5734 5735 5736 5736 5736 5736 5736 5736 5735 5735 5734 5734 5733 5733 5732 5731 5730 5729 5728 5727 5726 5725 5724 5723 5721 5720 5719 5718 5717
5722 5722 5722 5722 5723 5723 5723 5723 5723 5723 5724 5724 5724 5725 5725 5726 5726 5727 5727 5727 5728 5728 5728 5727 5727 5726 5726 5725 5724 5724 5723 5722 5721 5720 5719 5718 5717 5716 5715 5713 5712 5711 5710 5710
5714 5714 5714 5714 5715 5715 5715 5715 5715 5715 5715 5715 5716 5716 5717 5717 5718 5718 5719 5719 5719 5719 5719 5718 5718 5717 5717 5716 5716 5715 5714 5713 5713 5712 5711 5710 5709 5708 5707 5706 5705 5704 5703 5702
5706 5706 5706 5707 5708 5708 5708 5707 5707 5707 5707 5707 5707 5707 5708 5708 5709 5709 5709 5710 5710 5710 5710 5709 5709 5708 5708 5708 5707 5706 5706 5705 5704 5703 5703 5702 5701 5700 5699 5698 5697 5696 5695 5694